Hourly Data Report for October 23, 2012

All times are specified in Local Standard Time (LST). Add 1 hour to adjust for Daylight Saving Time where and when it is observed.

IQALUIT CLIMATE
NUNAVUT

63°44'50.000" N
68°32'40.000" W
33.50 m
2402592
71321
XFB

Download Data

Hourly Data (October 2012)
Hourly Data Report for October 23, 2012
Temp Definition
°C
Dew Point Temp Definition
°C
Rel Hum Definition
%
Wind Dir Definition
10's deg

Wind Spd Definition
km/h
Visibility Definition
km
Stn Press Definition
kPa
Hmdx Definition


Wind Chill Definition


Weather Definition


TIME
00:00 -12.6 -14.3 87 32 22   101.96   -22 LegendNANA
01:00 -11.8 -13.7 86 34 19   101.94   -20 LegendNANA
02:00 -13.7 -15.6 86 32 24   101.93   -23 LegendNANA
03:00 -13.9 -15.9 85 33 13   101.93   -21 LegendNANA
04:00 -13.7 -15.7 85 32 22   101.94   -23 LegendNANA
05:00 -13.5 -15.5 85 33 19   101.94   -22 LegendNANA
06:00 -14.6 -16.6 85 32 19   101.97   -23 LegendNANA
07:00 -14.6 -16.5 85 33 26   101.98   -25 LegendNANA
08:00 -14.0 -16.0 85 33 20   101.96   -23 LegendNANA
09:00 -13.8 -15.9 84 32 24   101.97   -23 LegendNANA
10:00 -13.0 -15.3 83 33 20   101.98   -22 LegendNANA
11:00 -12.6 -14.9 83 31 26   101.99   -22 LegendNANA
12:00 -10.8 -13.1 83 32 24   101.96   -20 LegendNANA
13:00 -11.1 -13.6 82 32 22   101.98   -20 LegendNANA
14:00 -10.8 -13.2 82 33 24   102.01   -20 LegendNANA
15:00 -10.9 -13.2 83 34 24   102.03   -20 LegendNANA
16:00 -10.5 -12.8 83 33 26   102.04   -20 LegendNANA
17:00 -10.4 -12.4 85 31 28   102.01   -20 LegendNANA
18:00 -9.8 -12.2 83 31 30   102.01   -19 LegendNANA
19:00 -10.0 -12.1 85 32 33   101.98   -20 LegendNANA
20:00 -9.3 -11.4 85 33 30   101.99   -19 LegendNANA
21:00 -7.8 -9.9 85 32 28   101.96   -16 LegendNANA
22:00 -7.0 -8.5 89 31 22   101.92   -14 LegendNANA
23:00 -7.1 -8.6 89 33 22   101.89   -15 LegendNANA

Notes on Data Quality.

Legend

  • E = Estimated
  • M = Missing
  • NA = Not Available
Date modified: